Flag for Poland Weather past 2 weeks in Włocławek, Poland

Now
67 °F

Mild.


Feels Like: 67 °F
Forecast: 51 / 61 °F
Wind: 3 mph from Southeast

Location: Plock

Current Time: May 5, 2015 at 9:27:11 PM

Latest Report: May 5, 2015 at 8:00 PM


Visibility: 17 mi

Pressure: 29.79 "Hg

Humidity: 63%

Dew point: 54 °F

Location of WłocławekLocation

Historic Weather in Włocławek — Graph

°F

Włocławek temperature yesterday

Maximum temperature yesterday: 64 °F (at 6:00 PM)
Minimum temperature yesterday: 47 °F (at 1:00 AM)
Average temperature yesterday: 54 °F

Past Weeks' High & Low Weather Summary

 TemperatureHumidityPressure
High73 °F (Apr 27, 4:00 PM)99% (May 5, 6:00 AM)30.23 "Hg (May 5, 6:00 AM)
Low32 °F (Apr 22, 5:00 AM)29% (May 3, 5:00 PM)29.58 "Hg (Apr 28, 5:00 AM)
Average53 °F66%29.91 "Hg
* Reported Apr 20 8:00 PM — May 5 8:00 PM, Włocławek, Weather by CustomWeather, © 2015

Note: Actual official high and low records may vary slightly from our data, if they occured in-between our weather recording intervals... More about our weather records

Advertising

Włocławek weather history for previous 24 hours

 ConditionsComfort  
Time TempWeatherWind HumidityBarometerVisibility
8:00 PM
Tue, May 5
67 °FMild.3 mph63%29.79 "Hg17 mi
7:00 PM69 °FMild.3 mph59%29.79 "Hg19 mi
6:00 PM71 °FMild.7 mph53%29.79 "Hg22 mi
5:00 PM71 °FSprinkles. Cloudy.5 mph55%29.80 "Hg25 mi
4:00 PM72 °FMild.6 mph52%29.82 "Hg19 mi
3:00 PM72 °FMild.7 mph48%29.83 "Hg22 mi
2:00 PM71 °FMild.5 mph46%29.85 "Hg28 mi
1:00 PM71 °FMild.6 mph45%29.86 "Hg25 mi
12:00 PM71 °FMild.6 mph52%29.88 "Hg19 mi
11:00 AM68 °FMild.5 mph56%29.89 "Hg16 mi
10:00 AM66 °FMild.5 mph66%29.90 "Hg13 mi
9:00 AM63 °FMild.3 mph73%29.91 "Hg8 mi
8:00 AM58 °FFog.3 mph85%29.92 "Hg4 mi
7:00 AM52 °FCool.1 mph99%29.93 "Hg2 mi
6:00 AM45 °FDuststorm.1 mph99%29.93 "Hg0 mi
4:00 AM44 °FDuststorm.1 mph97%29.93 "Hg0 mi
3:00 AM45 °FCool.1 mph97%29.93 "Hg1 mi
2:00 AM46 °FDuststorm.1 mph96%29.93 "Hg1 mi
1:00 AM47 °FFog.1 mph96%29.92 "Hg1 mi
12:00 AM50 °FFog.1 mph96%29.92 "Hg1 mi
11:00 PM
Mon, May 4
52 °FFog.1 mph90%29.92 "Hg2 mi
10:00 PM56 °FFog.2 mph85%29.90 "Hg4 mi
9:00 PM57 °FFog.2 mph82%29.90 "Hg4 mi
Weather by CustomWeather, © 2015

See weather overviewHow to use our weather pages